Вернуться в каталог

EXPLORER 16

АктивенНаукаLEO
NORAD 506·PAYLOAD·🇺🇸 United States

Запущен Dec 16, 1962 с Wallops Flight Facility

Loading…

Ближайшие Пролёты (ближайшие 24 часа)

TLE

СвежийSource: Space-Track

Эпоха: Sep 14, 2026, 12:17 UTC

1 00506U 62070A   26257.51189336 -.00000074  00000-0  45208-4 0  9999
2 00506  52.0018  87.3727 0275335 212.2145 146.1697 13.85802409221149

Отслеживайте EXPLORER 16 в реальном времени с AllMySat

Download on the App Store